BAW456 YSSY-YBBN

Flight info

Callsign BAW456
Flight time 1h 19m
Altitude 38000
Route GROOK DCT OLSEM H252 UPNEX H140 MATLA/N0471F370 H140 IDNER H66 BLAKA
Aircraft B77W/H-SDE1E2E3FGHIJ2J3J4J5M1RWXY/LB1D1

Departure

Time 2026-04-24 07:51
Airport Sydney Kingsford Smith International Airport (YSSY)

Arrival

Time 2026-04-24 09:11
Airport Brisbane International Airport (YBBN)
Time Latitude Longitude Altitude Speed Heading
2026-04-24 06:52 -33.93600 151.17679 35 ft 0 kts 76°
2026-04-24 07:35 -33.93600 151.17677 35 ft 0 kts 72°
2026-04-24 07:36 -33.93601 151.17676 35 ft 0 kts 69°
2026-04-24 07:36 -33.93602 151.17669 33 ft 2 kts 105°
2026-04-24 07:36 -33.93605 151.17650 32 ft 2 kts 64°
2026-04-24 07:36 -33.93611 151.17632 31 ft 2 kts 122°
2026-04-24 07:37 -33.93607 151.17625 29 ft 0 kts 147°
2026-04-24 07:41 -33.93608 151.17625 34 ft 0 kts 149°
2026-04-24 07:42 -33.93615 151.17628 34 ft 1 kts 162°
2026-04-24 07:42 -33.93685 151.17663 32 ft 8 kts 158°
2026-04-24 07:43 -33.93763 151.17689 29 ft 10 kts 167°
2026-04-24 07:43 -33.93795 151.17698 28 ft 0 kts 167°
2026-04-24 07:43 -33.93841 151.17725 27 ft 8 kts 140°
2026-04-24 07:43 -33.93889 151.17767 28 ft 9 kts 154°
2026-04-24 07:44 -33.93948 151.17791 27 ft 9 kts 166°
2026-04-24 07:44 -33.94010 151.17808 28 ft 10 kts 167°
2026-04-24 07:44 -33.94084 151.17827 28 ft 12 kts 168°
2026-04-24 07:44 -33.94168 151.17849 29 ft 13 kts 167°
2026-04-24 07:45 -33.94259 151.17873 29 ft 14 kts 168°
2026-04-24 07:45 -33.94361 151.17898 29 ft 16 kts 168°
2026-04-24 07:45 -33.94471 151.17895 29 ft 17 kts 196°
2026-04-24 07:45 -33.94584 151.17900 29 ft 16 kts 169°
2026-04-24 07:46 -33.94706 151.17930 27 ft 19 kts 168°
2026-04-24 07:46 -33.94847 151.17966 28 ft 22 kts 167°
2026-04-24 07:46 -33.94994 151.18004 29 ft 21 kts 168°
2026-04-24 07:46 -33.95096 151.18084 31 ft 13 kts 100°
2026-04-24 07:47 -33.95092 151.18163 30 ft 0 kts 80°
2026-04-24 07:47 -33.95089 151.18180 29 ft 4 kts 80°
2026-04-24 07:47 -33.95082 151.18225 29 ft 7 kts 77°
2026-04-24 07:47 -33.95070 151.18292 30 ft 9 kts 77°
2026-04-24 07:48 -33.95055 151.18373 31 ft 11 kts 78°
2026-04-24 07:48 -33.95038 151.18469 31 ft 12 kts 77°
2026-04-24 07:48 -33.95018 151.18576 31 ft 14 kts 78°
2026-04-24 07:48 -33.94999 151.18687 29 ft 9 kts 78°
2026-04-24 07:49 -33.94997 151.18698 29 ft 2 kts 78°
2026-04-24 07:49 -33.94997 151.18702 29 ft 0 kts 78°
2026-04-24 07:49 -33.94997 151.18703 29 ft 1 kts 78°
2026-04-24 07:50 -33.94997 151.18797 28 ft 18 kts 108°
2026-04-24 07:50 -33.95078 151.18866 28 ft 12 kts 163°
2026-04-24 07:50 -33.95120 151.18876 28 ft 0 kts 169°
2026-04-24 07:50 -33.95125 151.18877 27 ft 0 kts 169°
2026-04-24 07:51 -33.95195 151.18894 30 ft 47 kts 168°
2026-04-24 07:51 -33.95937 151.19086 35 ft 170 kts 167°
2026-04-24 07:51 -33.97315 151.19421 932 ft 210 kts 167°
2026-04-24 07:51 -33.98712 151.20118 2234 ft 238 kts 138°
2026-04-24 07:52 -33.99710 151.21714 3115 ft 244 kts 119°
2026-04-24 07:52 -34.00596 151.23503 4102 ft 252 kts 120°
2026-04-24 07:52 -34.01515 151.25336 4792 ft 256 kts 120°
2026-04-24 07:52 -34.02448 151.27189 5012 ft 262 kts 120°
2026-04-24 07:53 -34.03403 151.29085 5005 ft 264 kts 120°
2026-04-24 07:53 -34.04355 151.30971 4999 ft 262 kts 119°
2026-04-24 07:53 -34.05302 151.32847 4989 ft 261 kts 120°
2026-04-24 07:53 -34.06245 151.34716 4998 ft 260 kts 120°
2026-04-24 07:54 -34.07186 151.36575 4983 ft 260 kts 119°
2026-04-24 07:54 -34.08125 151.38436 4997 ft 259 kts 119°
2026-04-24 07:54 -34.09053 151.40273 4983 ft 260 kts 119°
2026-04-24 07:54 -34.09991 151.42132 4985 ft 259 kts 119°
2026-04-24 07:55 -34.10928 151.43988 4986 ft 259 kts 119°
2026-04-24 07:55 -34.11864 151.45848 4986 ft 260 kts 119°
2026-04-24 07:55 -34.12781 151.47728 4969 ft 256 kts 112°
2026-04-24 07:55 -34.13036 151.49797 4996 ft 254 kts 79°
2026-04-24 07:56 -34.12328 151.51767 4996 ft 262 kts 53°
2026-04-24 07:56 -34.10967 151.53221 4974 ft 264 kts 28°
2026-04-24 07:56 -34.09206 151.53797 4990 ft 265 kts
2026-04-24 07:56 -34.07388 151.53450 4990 ft 267 kts 340°
2026-04-24 07:57 -34.05820 151.52231 4992 ft 273 kts 315°
2026-04-24 07:57 -34.04534 151.50580 4969 ft 267 kts 326°
2026-04-24 07:57 -34.02819 151.49842 5133 ft 265 kts
2026-04-24 07:57 -34.01088 151.50467 6087 ft 260 kts 26°
2026-04-24 07:58 -33.99399 151.51270 7064 ft 268 kts 20°
2026-04-24 07:58 -33.97598 151.51946 8080 ft 273 kts 18°
2026-04-24 07:58 -33.95732 151.52556 9065 ft 280 kts 17°
2026-04-24 07:58 -33.93822 151.53125 10118 ft 285 kts 16°
2026-04-24 07:59 -33.91842 151.53680 10849 ft 303 kts 15°
2026-04-24 07:59 -33.89671 151.54266 11113 ft 335 kts 14°
2026-04-24 07:59 -33.87292 151.54885 11534 ft 359 kts 14°
2026-04-24 07:59 -33.84842 151.55506 12376 ft 370 kts 14°
2026-04-24 08:00 -33.82299 151.56143 13377 ft 376 kts 13°
2026-04-24 08:00 -33.79720 151.56785 14419 ft 382 kts 13°
2026-04-24 08:00 -33.77099 151.57437 15367 ft 387 kts 13°
2026-04-24 08:00 -33.74443 151.58098 16335 ft 392 kts 14°
2026-04-24 08:01 -33.71754 151.58769 17273 ft 398 kts 14°
2026-04-24 08:01 -33.69025 151.59449 18211 ft 403 kts 14°
2026-04-24 08:01 -33.66295 151.60294 19076 ft 407 kts 21°
2026-04-24 08:01 -33.63656 151.61582 19646 ft 411 kts 28°
2026-04-24 08:02 -33.61145 151.63252 19681 ft 412 kts 36°
2026-04-24 08:02 -33.59545 151.64552 19687 ft 410 kts 37°
2026-04-24 08:02 -33.57189 151.66488 19681 ft 410 kts 37°
2026-04-24 08:02 -33.54856 151.68367 19685 ft 409 kts 36°
2026-04-24 08:03 -33.52482 151.70247 19683 ft 410 kts 35°
2026-04-24 08:03 -33.49994 151.71930 19685 ft 412 kts 28°
2026-04-24 08:03 -33.47341 151.73264 19685 ft 414 kts 22°
2026-04-24 08:03 -33.44569 151.74243 19683 ft 416 kts 17°
2026-04-24 08:04 -33.41763 151.75082 19683 ft 416 kts 17°
2026-04-24 08:04 -33.38957 151.75944 19683 ft 416 kts 17°
2026-04-24 08:04 -33.36154 151.76827 19685 ft 416 kts 17°
2026-04-24 08:04 -33.33358 151.77725 19689 ft 416 kts 18°
2026-04-24 08:05 -33.30559 151.78630 19692 ft 417 kts 18°
2026-04-24 08:05 -33.27727 151.79550 19701 ft 430 kts 18°
2026-04-24 08:05 -33.24836 151.80489 19679 ft 426 kts 18°
2026-04-24 08:05 -33.22013 151.81399 19694 ft 416 kts 18°
2026-04-24 08:06 -33.19201 151.82306 20113 ft 422 kts 18°
2026-04-24 08:06 -33.16354 151.83225 20948 ft 426 kts 18°
2026-04-24 08:06 -33.13478 151.84152 21819 ft 429 kts 18°
2026-04-24 08:06 -33.10574 151.85086 22620 ft 435 kts 18°
2026-04-24 08:07 -33.07661 151.86008 23321 ft 442 kts 17°
2026-04-24 08:07 -33.04660 151.86957 24037 ft 448 kts 18°
2026-04-24 08:07 -33.01633 151.87920 24672 ft 452 kts 18°
2026-04-24 08:07 -32.98579 151.88896 25345 ft 455 kts 18°
2026-04-24 08:08 -32.95508 151.89879 26022 ft 458 kts 17°
2026-04-24 08:08 -32.92414 151.90871 26660 ft 462 kts 17°
2026-04-24 08:08 -32.89299 151.91870 27282 ft 466 kts 18°
2026-04-24 08:09 -32.82993 151.93888 28515 ft 472 kts 18°
2026-04-24 08:09 -32.79808 151.94906 29074 ft 476 kts 18°
2026-04-24 08:09 -32.76584 151.95936 29497 ft 483 kts 18°
2026-04-24 08:09 -32.73363 151.96964 29892 ft 488 kts 18°
2026-04-24 08:10 -32.70067 151.98015 30353 ft 491 kts 17°
2026-04-24 08:10 -32.66759 151.99067 30837 ft 492 kts 17°
2026-04-24 08:10 -32.63443 152.00121 31310 ft 493 kts 17°
2026-04-24 08:10 -32.60130 152.01173 31792 ft 493 kts 17°
2026-04-24 08:11 -32.56799 152.02229 32271 ft 493 kts 17°
2026-04-24 08:11 -32.53525 152.03268 32723 ft 494 kts 17°
2026-04-24 08:11 -32.50203 152.04321 33182 ft 494 kts 17°
2026-04-24 08:11 -32.46880 152.05374 33638 ft 494 kts 17°
2026-04-24 08:12 -32.43549 152.06428 34101 ft 495 kts 17°
2026-04-24 08:12 -32.40217 152.07482 34517 ft 495 kts 17°
2026-04-24 08:12 -32.36884 152.08536 34873 ft 496 kts 17°
2026-04-24 08:12 -32.33549 152.09589 35215 ft 497 kts 17°
2026-04-24 08:13 -32.30206 152.10645 35537 ft 498 kts 17°
2026-04-24 08:13 -32.26887 152.11692 35863 ft 498 kts 17°
2026-04-24 08:13 -32.23537 152.12748 36197 ft 499 kts 17°
2026-04-24 08:13 -32.20175 152.13807 36531 ft 499 kts 17°
2026-04-24 08:14 -32.16812 152.14865 36834 ft 500 kts 17°
2026-04-24 08:14 -32.10028 152.17000 36974 ft 507 kts 17°
2026-04-24 08:15 -32.03235 152.19130 36965 ft 501 kts 17°
2026-04-24 08:15 -31.96522 152.21233 36980 ft 499 kts 17°
2026-04-24 08:16 -31.89813 152.23333 36981 ft 498 kts 17°
2026-04-24 08:16 -31.83145 152.25417 36982 ft 499 kts 17°
2026-04-24 08:17 -31.76429 152.27514 36993 ft 499 kts 17°
2026-04-24 08:17 -31.69697 152.29612 36985 ft 501 kts 17°
2026-04-24 08:18 -31.62952 152.31710 36991 ft 502 kts 17°
2026-04-24 08:18 -31.56177 152.33815 36989 ft 502 kts 17°
2026-04-24 08:19 -31.49417 152.35912 36990 ft 503 kts 16°
2026-04-24 08:19 -31.42653 152.38007 36994 ft 503 kts 16°
2026-04-24 08:20 -31.35886 152.40100 36993 ft 503 kts 16°
2026-04-24 08:20 -31.29150 152.42182 36981 ft 503 kts 16°
2026-04-24 08:21 -31.22384 152.44269 36979 ft 503 kts 16°
2026-04-24 08:21 -31.15607 152.46356 36983 ft 502 kts 16°
2026-04-24 08:22 -31.08895 152.48421 36987 ft 502 kts 15°
2026-04-24 08:22 -31.02140 152.50496 36980 ft 502 kts 15°
2026-04-24 08:23 -30.95390 152.52567 36988 ft 501 kts 15°
2026-04-24 08:23 -30.88646 152.54638 36983 ft 500 kts 15°
2026-04-24 08:24 -30.81908 152.56706 36976 ft 500 kts 14°
2026-04-24 08:24 -30.75213 152.58888 36945 ft 499 kts 17°
2026-04-24 08:25 -30.68633 152.61319 36936 ft 498 kts 18°
2026-04-24 08:25 -30.62024 152.63782 36948 ft 497 kts 17°
2026-04-24 08:26 -30.55413 152.66200 36926 ft 498 kts 17°
2026-04-24 08:26 -30.48789 152.68598 36914 ft 499 kts 17°
2026-04-24 08:27 -30.42156 152.70994 36824 ft 498 kts 17°
2026-04-24 08:27 -30.35542 152.73382 36787 ft 497 kts 17°
2026-04-24 08:28 -30.28936 152.75765 36688 ft 497 kts 17°
2026-04-24 08:28 -30.22337 152.78143 36536 ft 497 kts 17°
2026-04-24 08:29 -30.15784 152.80502 36452 ft 495 kts 17°
2026-04-24 08:29 -30.09210 152.82866 36453 ft 495 kts 17°
2026-04-24 08:30 -30.02630 152.85230 36441 ft 494 kts 17°
2026-04-24 08:30 -29.96098 152.87577 36431 ft 494 kts 16°
2026-04-24 08:31 -29.89509 152.89932 36437 ft 493 kts 16°
2026-04-24 08:31 -29.82945 152.92248 36424 ft 493 kts 16°
2026-04-24 08:32 -29.76432 152.94544 36422 ft 492 kts 16°
2026-04-24 08:32 -29.69871 152.96865 36421 ft 492 kts 16°
2026-04-24 08:33 -29.63322 152.99182 36415 ft 491 kts 16°
2026-04-24 08:33 -29.56839 153.01473 36410 ft 490 kts 16°
2026-04-24 08:34 -29.50315 153.03775 36410 ft 490 kts 16°
2026-04-24 08:34 -29.43791 153.06074 36405 ft 490 kts 15°
2026-04-24 08:35 -29.37274 153.08372 36405 ft 490 kts 15°
2026-04-24 08:35 -29.30749 153.10669 36411 ft 491 kts 15°
2026-04-24 08:36 -29.24237 153.12949 36400 ft 492 kts 15°
2026-04-24 08:36 -29.17668 153.15250 36391 ft 492 kts 15°
2026-04-24 08:37 -29.11146 153.17540 36395 ft 492 kts 15°
2026-04-24 08:37 -29.04593 153.19843 36391 ft 492 kts 15°
2026-04-24 08:38 -28.98052 153.22139 36390 ft 492 kts 15°
2026-04-24 08:38 -28.91539 153.24422 36379 ft 492 kts 15°
2026-04-24 08:39 -28.84970 153.26721 36384 ft 492 kts 15°
2026-04-24 08:39 -28.78407 153.29015 36380 ft 493 kts 15°
2026-04-24 08:40 -28.71857 153.31302 36349 ft 488 kts 15°
2026-04-24 08:40 -28.65403 153.33552 36363 ft 482 kts 15°
2026-04-24 08:41 -28.59016 153.35773 36371 ft 479 kts 14°
2026-04-24 08:41 -28.52663 153.37983 36373 ft 482 kts 14°
2026-04-24 08:42 -28.46232 153.40220 36350 ft 484 kts 14°
2026-04-24 08:42 -28.39775 153.42462 36049 ft 486 kts 15°
2026-04-24 08:42 -28.36560 153.43580 35654 ft 481 kts 14°
2026-04-24 08:43 -28.33385 153.44682 35334 ft 473 kts 14°
2026-04-24 08:43 -28.30257 153.45768 34978 ft 467 kts 14°
2026-04-24 08:43 -28.27170 153.46841 34648 ft 461 kts 14°
2026-04-24 08:43 -28.24118 153.47897 34175 ft 458 kts 14°
2026-04-24 08:44 -28.21112 153.48921 33631 ft 454 kts 12°
2026-04-24 08:44 -28.18014 153.49480 33092 ft 448 kts 359°
2026-04-24 08:44 -28.14932 153.49293 32703 ft 440 kts 349°
2026-04-24 08:44 -28.11981 153.48492 32257 ft 431 kts 338°
2026-04-24 08:45 -28.09187 153.47285 31735 ft 429 kts 337°
2026-04-24 08:45 -28.06397 153.46060 31230 ft 427 kts 338°
2026-04-24 08:45 -28.03617 153.44856 30683 ft 428 kts 339°
2026-04-24 08:45 -28.00827 153.43668 30051 ft 429 kts 340°
2026-04-24 08:46 -27.98011 153.42488 29388 ft 430 kts 340°
2026-04-24 08:46 -27.95225 153.41328 29049 ft 423 kts 341°
2026-04-24 08:46 -27.92521 153.40202 28666 ft 417 kts 340°
2026-04-24 08:46 -27.89795 153.39067 28094 ft 417 kts 341°
2026-04-24 08:47 -27.87078 153.37938 27608 ft 415 kts 341°
2026-04-24 08:47 -27.84367 153.36815 27212 ft 411 kts 340°
2026-04-24 08:47 -27.81685 153.35705 26712 ft 410 kts 341°
2026-04-24 08:47 -27.79014 153.34599 26309 ft 407 kts 340°
2026-04-24 08:48 -27.76362 153.33496 25911 ft 404 kts 340°
2026-04-24 08:48 -27.74607 153.32870 25651 ft 394 kts 350°
2026-04-24 08:48 -27.71044 153.33033 24895 ft 387 kts 20°
2026-04-24 08:48 -27.68648 153.34332 24451 ft 380 kts 38°
2026-04-24 08:49 -27.66733 153.36325 24052 ft 372 kts 54°
2026-04-24 08:49 -27.65428 153.38796 23593 ft 365 kts 70°
2026-04-24 08:49 -27.64947 153.40604 23290 ft 360 kts 81°
2026-04-24 08:49 -27.64384 153.43311 22719 ft 357 kts 67°
2026-04-24 08:50 -27.62867 153.45554 22171 ft 369 kts 40°
2026-04-24 08:50 -27.60543 153.46786 21742 ft 376 kts 14°
2026-04-24 08:50 -27.57917 153.46734 21247 ft 383 kts 345°
2026-04-24 08:50 -27.55517 153.45448 20810 ft 383 kts 326°
2026-04-24 08:51 -27.53409 153.43671 20409 ft 382 kts 322°
2026-04-24 08:51 -27.51222 153.41952 20096 ft 376 kts 332°
2026-04-24 08:51 -27.48826 153.40848 19767 ft 370 kts 346°
2026-04-24 08:51 -27.46311 153.40370 19426 ft 365 kts 357°
2026-04-24 08:52 -27.43822 153.40303 19057 ft 362 kts
2026-04-24 08:52 -27.41309 153.40411 18731 ft 359 kts
2026-04-24 08:52 -27.38839 153.40548 18576 ft 351 kts
2026-04-24 08:52 -27.36424 153.40674 18418 ft 343 kts
2026-04-24 08:53 -27.34062 153.40788 18231 ft 335 kts
2026-04-24 08:53 -27.31728 153.40896 17707 ft 338 kts
2026-04-24 08:53 -27.29340 153.41009 17014 ft 347 kts
2026-04-24 08:53 -27.26905 153.41125 16361 ft 354 kts
2026-04-24 08:54 -27.24422 153.41239 15668 ft 361 kts
2026-04-24 08:54 -27.21871 153.41345 14699 ft 372 kts
2026-04-24 08:54 -27.19253 153.40854 13423 ft 396 kts 339°
2026-04-24 08:54 -27.16905 153.39144 12320 ft 411 kts 314°
2026-04-24 08:55 -27.15272 153.36541 11670 ft 407 kts 293°
2026-04-24 08:55 -27.14501 153.33613 11529 ft 388 kts 275°
2026-04-24 08:55 -27.14436 153.30670 11431 ft 368 kts 261°
2026-04-24 08:55 -27.14979 153.27951 11319 ft 346 kts 242°
2026-04-24 08:56 -27.16310 153.25843 11231 ft 322 kts 218°
2026-04-24 08:56 -27.17869 153.24162 11079 ft 305 kts 228°
2026-04-24 08:56 -27.18765 153.22027 10977 ft 303 kts 254°
2026-04-24 08:56 -27.18802 153.19687 10901 ft 298 kts 275°
2026-04-24 08:57 -27.18401 153.17443 10817 ft 289 kts 279°
2026-04-24 08:57 -27.17926 153.15247 10478 ft 290 kts 280°
2026-04-24 08:57 -27.17431 153.13028 10066 ft 293 kts 281°
2026-04-24 08:57 -27.16936 153.10799 9555 ft 294 kts 285°
2026-04-24 08:58 -27.15959 153.08791 8965 ft 303 kts 311°
2026-04-24 08:58 -27.14269 153.07396 8544 ft 302 kts 339°
2026-04-24 08:58 -27.12247 153.06933 8195 ft 294 kts
2026-04-24 08:58 -27.10258 153.07298 7884 ft 287 kts 18°
2026-04-24 08:59 -27.08334 153.07895 7545 ft 286 kts 20°
2026-04-24 08:59 -27.06427 153.08522 7233 ft 286 kts 20°
2026-04-24 08:59 -27.04525 153.09161 6932 ft 285 kts 20°
2026-04-24 08:59 -27.02626 153.09803 6615 ft 284 kts 21°
2026-04-24 09:00 -27.00740 153.10434 6345 ft 281 kts 21°
2026-04-24 09:00 -26.98879 153.11052 5990 ft 282 kts 20°
2026-04-24 09:00 -26.96997 153.11673 5682 ft 281 kts 20°
2026-04-24 09:00 -26.95134 153.12282 5414 ft 278 kts 20°
2026-04-24 09:01 -26.93275 153.12894 5072 ft 279 kts 20°
2026-04-24 09:01 -26.91493 153.13553 5098 ft 257 kts 33°
2026-04-24 09:01 -26.90237 153.14910 5199 ft 254 kts 69°
2026-04-24 09:01 -26.89943 153.16814 5261 ft 249 kts 103°
2026-04-24 09:02 -26.90700 153.18490 5296 ft 242 kts 137°
2026-04-24 09:02 -26.92191 153.19294 5298 ft 244 kts 171°
2026-04-24 09:02 -26.93880 153.19102 5322 ft 245 kts 185°
2026-04-24 09:02 -26.95574 153.18778 5307 ft 248 kts 185°
2026-04-24 09:03 -26.97280 153.18486 5303 ft 244 kts 178°
2026-04-24 09:03 -26.98835 153.18920 5298 ft 230 kts 144°
2026-04-24 09:03 -27.00069 153.20005 5300 ft 223 kts 143°
2026-04-24 09:03 -27.01397 153.20921 5308 ft 226 kts 150°
2026-04-24 09:04 -27.02824 153.21674 5314 ft 227 kts 154°
2026-04-24 09:04 -27.04304 153.22314 5322 ft 229 kts 158°
2026-04-24 09:04 -27.05817 153.22868 5313 ft 228 kts 160°
2026-04-24 09:04 -27.07331 153.23350 5305 ft 225 kts 162°
2026-04-24 09:05 -27.08844 153.23783 5307 ft 224 kts 163°
2026-04-24 09:05 -27.10365 153.24192 5322 ft 225 kts 163°
2026-04-24 09:05 -27.11896 153.24591 5320 ft 226 kts 163°
2026-04-24 09:05 -27.13408 153.24981 5325 ft 226 kts 163°
2026-04-24 09:06 -27.14943 153.25361 5317 ft 225 kts 168°
2026-04-24 09:06 -27.16504 153.25205 5112 ft 232 kts 193°
2026-04-24 09:06 -27.17995 153.24506 4892 ft 231 kts 197°
2026-04-24 09:06 -27.19456 153.23739 4551 ft 233 kts 199°
2026-04-24 09:07 -27.20902 153.22924 4343 ft 230 kts 200°
2026-04-24 09:07 -27.22332 153.22103 4409 ft 230 kts 201°
2026-04-24 09:07 -27.25164 153.20480 4341 ft 224 kts 200°
2026-04-24 09:08 -27.26512 153.19706 4329 ft 213 kts 199°
2026-04-24 09:08 -27.27818 153.18959 4332 ft 206 kts 199°
2026-04-24 09:08 -27.29048 153.18254 4337 ft 194 kts 199°
2026-04-24 09:08 -27.30188 153.17598 4108 ft 175 kts 198°
2026-04-24 09:09 -27.31239 153.16999 3599 ft 166 kts 197°
2026-04-24 09:09 -27.32264 153.16413 2993 ft 164 kts 197°
2026-04-24 09:09 -27.33276 153.15827 2363 ft 166 kts 199°
2026-04-24 09:09 -27.34335 153.15189 1469 ft 176 kts 201°
2026-04-24 09:10 -27.35417 153.14569 769 ft 172 kts 197°
2026-04-24 09:10 -27.36480 153.13988 252 ft 162 kts 202°
2026-04-24 09:10 -27.37401 153.13464 62 ft 148 kts 203°
2026-04-24 09:10 -27.38241 153.12987 29 ft 84 kts 207°
2026-04-24 09:11 -27.38440 153.12823 28 ft 23 kts 256°
2026-04-24 09:11 -27.38439 153.12773 27 ft 0 kts 284°
2026-04-24 09:11 -27.38439 153.12769 27 ft 1 kts 285°
2026-04-24 09:11 -27.38435 153.12755 28 ft 3 kts 285°
2026-04-24 09:12 -27.38428 153.12729 28 ft 4 kts 282°
2026-04-24 09:12 -27.38429 153.12694 26 ft 0 kts 259°
2026-04-24 09:12 -27.38407 153.12649 27 ft 21 kts 310°
2026-04-24 09:12 -27.38389 153.12560 25 ft 6 kts 240°
2026-04-24 09:13 -27.38427 153.12517 25 ft 2 kts 221°
2026-04-24 09:13 -27.38438 153.12503 27 ft 3 kts 234°
2026-04-24 09:13 -27.38451 153.12425 26 ft 15 kts 262°
2026-04-24 09:13 -27.38487 153.12367 26 ft 5 kts 219°
2026-04-24 09:14 -27.38520 153.12307 26 ft 11 kts 240°
2026-04-24 09:14 -27.38539 153.12269 25 ft 2 kts 240°
2026-04-24 09:14 -27.38546 153.12256 24 ft 0 kts 239°